Location: Fort Wayne
(41.1310°N, 85.1290°W)
Time: 09:24:45
(UTC-04:00)

Cosmos 2219 Rocket - Visible Passes

Search period start: 25 October 2014 00:00
Search period end: 03 November 2014 23:00
Orbit: 827 x 848 km, 71.0° (Epoch: 25 October)

Date Brightness Start Highest point End Pass type
(mag) Time Alt. Az. Time Alt. Az. Time Alt. Az.
25 Oct 4.3 04:28:23 23° ENE 04:28:23 23° ENE 04:32:05 10° ESE visible
25 Oct 2.2 06:10:16 41° WNW 06:11:51 54° WSW 06:17:20 10° S visible
25 Oct 2.6 19:12:56 10° S 19:18:12 43° ESE 19:23:31 10° NE visible
25 Oct 4.0 20:57:31 10° WSW 21:02:19 28° NW 21:07:09 10° N visible
26 Oct 4.8 04:14:33 14° E 04:14:33 14° E 04:15:38 10° ESE visible
26 Oct 2.3 05:56:25 53° SW 05:56:25 53° SW 06:01:08 10° S visible
26 Oct 4.0 20:41:07 10° WSW 20:46:01 30° NW 20:50:58 10° N visible
27 Oct 3.5 05:42:30 26° S 05:42:30 26° S 05:44:56 10° S visible
27 Oct 3.9 20:24:43 10° WSW 20:29:43 32° WNW 20:34:46 10° N visible
28 Oct 4.5 05:28:25 12° S 05:28:25 12° S 05:28:43 10° SSE visible
28 Oct 3.8 20:08:20 10° WSW 20:13:25 34° WNW 20:18:34 10° N visible
29 Oct 3.7 19:51:58 10° SW 19:57:08 37° WNW 20:02:21 10° N visible
30 Oct 3.5 19:35:36 10° SW 19:40:50 39° WNW 19:46:09 10° N visible
31 Oct 3.4 19:19:14 10° SW 19:24:33 42° WNW 19:29:56 10° N visible
01 Nov 3.3 19:02:53 10° SW 19:08:16 45° WNW 19:13:42 10° NNE visible
